TimeEDT,TemperatureF,Dew PointF,Humidity,Sea Level PressureIn,VisibilityMPH,Wind Direction,Wind SpeedMPH,Gust SpeedMPH,PrecipitationIn,Events,Conditions,WindDirDegrees,DateUTC
12:53 AM,72.0,69.1,91,30.14,5.0,Calm,Calm,-,N/A,,Clear,0,2013-09-10 04:53:00
1:53 AM,71.1,69.1,93,30.15,5.0,NNE,3.5,-,N/A,,Clear,30,2013-09-10 05:53:00
2:53 AM,70.0,68.0,93,30.15,4.0,Calm,Calm,-,N/A,,Clear,0,2013-09-10 06:53:00
3:03 AM,69.8,68.0,94,30.16,2.5,Calm,Calm,-,N/A,,Clear,0,2013-09-10 07:03:00
3:10 AM,69.8,68.0,94,30.16,5.0,Calm,Calm,-,N/A,,Clear,0,2013-09-10 07:10:00
3:53 AM,70.0,68.0,93,30.14,4.0,Calm,Calm,-,N/A,,Clear,0,2013-09-10 07:53:00
4:12 AM,69.8,68.0,94,30.15,2.5,Calm,Calm,-,N/A,,Clear,0,2013-09-10 08:12:00
4:21 AM,69.8,66.2,88,30.15,4.0,Calm,Calm,-,N/A,,Clear,0,2013-09-10 08:21:00
4:53 AM,69.1,66.9,93,30.16,5.0,Calm,Calm,-,N/A,,Clear,0,2013-09-10 08:53:00
5:53 AM,70.0,66.9,90,30.17,5.0,Calm,Calm,-,N/A,,Clear,0,2013-09-10 09:53:00
6:53 AM,69.1,66.9,93,30.19,4.0,Calm,Calm,-,N/A,,Clear,0,2013-09-10 10:53:00
7:12 AM,69.8,66.2,88,30.20,2.5,Calm,Calm,-,N/A,,Clear,0,2013-09-10 11:12:00
7:25 AM,69.8,66.2,88,30.20,3.0,Calm,Calm,-,N/A,,Clear,0,2013-09-10 11:25:00
7:53 AM,72.0,69.1,91,30.20,5.0,Calm,Calm,-,N/A,,Clear,0,2013-09-10 11:53:00
8:53 AM,75.0,69.1,82,30.21,8.0,NE,6.9,-,N/A,,Clear,50,2013-09-10 12:53:00
9:53 AM,80.1,70.0,71,30.23,10.0,ENE,6.9,-,N/A,,Clear,70,2013-09-10 13:53:00
10:53 AM,82.0,69.1,65,30.24,10.0,ESE,5.8,-,N/A,,Partly Cloudy,120,2013-09-10 14:53:00
11:53 AM,84.0,68.0,58,30.22,10.0,Variable,4.6,-,N/A,,Clear,0,2013-09-10 15:53:00
12:53 PM,86.0,66.9,53,30.21,10.0,Variable,5.8,-,N/A,,Clear,0,2013-09-10 16:53:00
1:53 PM,88.0,66.0,48,30.20,10.0,East,8.1,-,N/A,,Clear,80,2013-09-10 17:53:00
2:53 PM,88.0,64.9,46,30.19,10.0,East,8.1,-,N/A,,Partly Cloudy,80,2013-09-10 18:53:00
3:53 PM,89.1,63.0,42,30.17,10.0,ESE,10.4,-,N/A,,Partly Cloudy,120,2013-09-10 19:53:00
4:53 PM,89.1,61.0,39,30.15,10.0,ENE,9.2,-,N/A,,Clear,70,2013-09-10 20:53:00
5:53 PM,88.0,62.1,42,30.15,10.0,Variable,5.8,-,N/A,,Clear,0,2013-09-10 21:53:00
6:53 PM,86.0,64.9,49,30.15,10.0,East,3.5,-,N/A,,Clear,90,2013-09-10 22:53:00
7:53 PM,81.0,66.0,60,30.17,10.0,SE,4.6,-,N/A,,Scattered Clouds,130,2013-09-10 23:53:00
8:53 PM,78.1,66.9,68,30.18,10.0,ESE,3.5,-,N/A,,Clear,120,2013-09-11 00:53:00
9:53 PM,73.9,66.0,76,30.20,10.0,Calm,Calm,-,N/A,,Clear,0,2013-09-11 01:53:00
10:53 PM,73.0,66.0,79,30.21,9.0,Calm,Calm,-,N/A,,Clear,0,2013-09-11 02:53:00
11:53 PM,71.1,66.9,87,30.21,7.0,Calm,Calm,-,N/A,,Clear,0,2013-09-11 03:53:00